WB8ZTP Weather Reports


Display with metric or nautical units.
time (UTC)temp
F
wind
direction
speed
MPH
gust
MPH
rain 1hr
in
rain 24hr
in
rain mn
in
humidity
%
barometer
mb
20260506204556 56 272 1.0 12.0 0.00 0.00 0.00 59 1014.2
20260506203055 57 228 2.0 8.0 0.00 0.00 0.00 61 1014.0
20260506201555 57 313 4.0 10.0 0.00 0.00 0.00 58 1014.0
20260506200055 57 19 4.0 12.0 0.00 0.00 0.00 59 1013.9
20260506194554 58 20 2.0 10.0 0.00 0.00 0.00 57 1013.8
20260506193053 58 285 3.0 10.0 0.00 0.00 0.00 57 1013.6
20260506191553 58 284 3.0 11.0 0.00 0.00 0.00 56 1013.8
20260506190053 58 333 1.0 9.0 0.00 0.00 0.00 59 1013.7
20260506184552 57 13 4.0 11.0 0.00 0.00 0.00 59 1013.9
20260506183056 57 350 6.0 12.0 0.00 0.00 0.00 58 1014.0
20260506181615 56 348 1.0 7.0 0.00 0.00 0.00 62 1013.9
20260506180049 56 330 4.0 12.0 0.00 0.00 0.00 62 1014.0
20260506174547 56 9 2.0 9.0 0.00 0.00 0.00 58 1014.0
20260506173057 56 5 1.0 10.0 0.00 0.00 0.00 63 1014.0
20260506171546 55 5 3.0 11.0 0.00 0.00 0.00 64 1013.9
20260506170048 55 49 3.0 7.0 0.00 0.00 0.00 66 1013.7
20260506164546 55 360 4.0 11.0 0.00 0.00 0.00 70 1014.2
20260506163043 54 24 2.0 10.0 0.00 0.00 0.00 67 1013.8
20260506161540 54 311 2.0 9.0 0.00 0.00 0.00 70 1013.8
20260506160044 53 331 2.0 8.0 0.00 0.00 0.00 78 1013.7
20260506154536 52 341 2.0 8.0 0.00 0.00 0.00 78 1013.5
20260506153041 51 21 3.0 8.0 0.00 0.00 0.00 80 1013.4
20260506151534 50 27 2.0 6.0 0.00 0.00 0.00 83 1013.2
20260506150033 50 17 2.0 7.0 0.00 0.00 0.00 86 1013.3
20260506144528 49 16 2.0 8.0 0.00 0.00 0.00 87 1013.0
20260506143031 48 15 4.0 8.0 0.00 0.00 0.00 88 1012.6
20260506141525 47 19 3.0 8.0 0.00 0.00 0.00 89 1012.6
20260506140025 47 355 3.0 10.0 0.00 0.00 0.00 90 1012.4
20260506134521 47 17 2.0 6.0 0.00 0.00 0.00 90 1012.2
20260506133020 46 350 2.0 6.0 0.00 0.00 0.00 90 1012.0
20260506131529 46 343 1.0 5.0 0.00 0.00 0.00 89 1012.0
20260506130021 46 15 4.0 9.0 0.00 0.00 0.00 89 1012.0
20260506124515 46 22 1.0 7.0 0.00 0.00 0.00 88 1011.0
20260506123015 45 21 3.0 7.0 0.00 0.00 0.00 88 1011.2
20260506121514 45 13 2.0 9.0 0.00 0.00 0.00 88 1010.9
20260506120019 45 350 2.0 6.0 0.00 0.00 0.00 89 1010.9
20260506114519 45 19 2.0 6.0 0.00 0.00 0.00 89 1010.7
20260506113023 45 355 2.0 9.0 0.00 0.00 0.00 89 1010.4
20260506111507 45 15 2.0 7.0 0.00 0.00 0.00 89 1009.7
20260506110011 45 9 3.0 11.0 0.00 0.00 0.00 89 1010.0
20260506104504 45 342 2.0 9.0 0.00 0.00 0.00 89 1010.1
20260506103001 45 17 4.0 10.0 0.00 0.00 0.00 89 1009.3
20260506101558 45 23 1.0 7.0 0.00 0.00 0.00 89 1008.8
20260506100057 45 23 2.0 9.0 0.00 0.00 0.00 89 1008.4
20260506094555 45 22 2.0 9.0 0.00 0.00 0.00 89 1008.9
20260506093053 45 18 4.0 14.0 0.00 0.00 0.00 89 1009.0
20260506091555 46 10 6.0 12.0 0.00 0.00 0.00 89 1008.4
20260506090053 47 24 4.0 8.0 0.00 0.00 0.00 88 1008.8
20260506084547 47 355 4.0 11.0 0.00 0.00 0.00 89 1008.6
20260506083041 48 31 3.0 10.0 0.00 0.00 0.00 88 1008.4
20260506081539 48 16 4.0 11.0 0.00 0.00 0.00 88 1008.3
20260506073031 49 335 3.0 7.0 0.00 0.00 0.00 88 1007.6
20260506071529 50 342 3.0 9.0 0.00 0.00 0.00 88 1007.6
20260506061520 52 11 0.0 0.0 0.00 0.00 0.00 88 1007.5
20260506044506 57 200 0.0 3.0 0.00 0.00 0.00 87 1008.2
20260506043005 57 200 0.0 5.0 0.00 0.00 0.00 87 1008.3
20260506041504 57 183 0.0 5.0 0.00 0.00 0.00 87 1008.3
20260506040001 57 172 2.0 6.0 0.00 0.00 0.00 87 1008.5
20260506034615 57 193 2.0 6.0 0.00 0.00 0.00 87 1008.8
20260506033059 57 217 3.0 7.0 0.00 0.00 0.00 87 1009.0
20260506031608 57 223 0.0 6.0 0.00 0.00 0.00 87 1009.2
20260506030057 57 215 1.0 7.0 0.00 0.00 0.00 88 1009.0
20260506024616 58 180 1.0 5.0 0.00 0.00 0.00 87 1009.2
20260506023055 58 198 3.0 6.0 0.00 0.00 0.00 87 1009.3
20260506021557 58 221 1.0 6.0 0.00 0.00 0.00 87 1009.4
20260506020054 58 207 1.0 6.0 0.00 0.00 0.00 88 1009.3
20260506014554 58 194 2.0 5.0 0.00 0.00 0.00 88 1009.1
20260506013104 58 199 0.0 5.0 0.00 0.00 0.00 88 1008.8
20260506011605 58 171 0.0 6.0 0.00 0.00 0.00 88 1008.8
20260506010056 58 215 2.0 7.0 0.00 0.00 0.00 88 1009.0
20260506004551 58 242 3.0 8.0 0.00 0.00 0.00 88 1009.1
20260506003050 58 206 2.0 5.0 0.00 0.00 0.00 88 1009.0
20260506001549 58 214 1.0 5.0 0.00 0.00 0.00 88 1009.0
20260506000051 58 222 1.0 6.0 0.00 0.00 0.00 88 1008.9
20260505234548 58 183 0.0 5.0 0.00 0.00 0.00 88 1009.0
20260505233047 59 231 1.0 8.0 0.00 0.00 0.00 88 1009.0
20260505231547 59 213 2.0 7.0 0.00 0.00 0.00 88 1009.3
20260505230056 59 198 2.0 9.0 0.00 0.00 0.00 89 1009.4
20260505224547 59 315 2.0 11.0 0.00 0.00 0.00 89 1009.4
20260505223054 61 232 2.0 13.0 0.00 0.00 0.00 87 1009.3
20260505221540 65 217 4.0 13.0 0.00 0.00 0.00 75 1009.1
20260505220043 68 184 4.0 8.0 0.00 0.00 0.00 65 1008.5
20260505214540 69 169 4.0 10.0 0.00 0.00 0.00 64 1008.3
20260505213051 70 167 6.0 12.0 0.00 0.00 0.00 63 1008.4
20260505211538 69 120 3.0 10.0 0.00 0.00 0.00 67 1008.3
20260505210038 68 194 3.0 10.0 0.00 0.00 0.00 66 1008.6